User: anonymous   Login
Location: Unspecified
(0.0000°N, 0.0000°E)
Time: 12:46:41
(UTC+00:00)
Language:

SCATHA - Orbit

View from above orbital plane
View from above orbital plane
View from above satellite
View from above satellite

Ground track
Ground track

The orbit data is extracted from the following two-line orbital elements,

1 11256U 79007A   18200.12768587 -.00000010 +00000-0 +00000-0 0  9995
2 11256 016.3060 321.3400 1780824 038.6305 345.5176 01.01526404113112
Epoch (UTC): 19 July 2018 03:03:52
Eccentricity: 0.1780824
inclination: 16.3060°
perigee height: 27991 km
apogee height: 42885 km
right ascension of ascending node: 321.3400°
argument of perigee: 38.6305°
revolutions per day: 1.01526404
mean anomaly at epoch: 345.5176°
orbit number at epoch: 11311

The dashed part of the orbit path shows where the satellite is in the earth's shadow,  

DLR